Location: Izdebno
(52.6670°N, 16.2170°E)
Time: 04:32:32
(UTC+02:00)

A-11 Canister half - Pass Details

Date: 12 February 2023
Orbit: 1526 x 1682 km, 47.3° (Epoch: 24 March)

Event Time Altitude Azimuth Distance (km) Brightness Sun altitude
Rises 08:49:29 0° 282° (WNW) 4,682 11.0 11.0°
Reaches altitude 10° 08:52:43 10° 276° (W) 3,704 10.6 11.3°
Maximum altitude 09:01:12 41° 210° (SSW) 2,108 10.1 12.3°
Drops below altitude 10° 09:09:52 10° 145° (SE) 3,775 13.5 13.2°
Sets 09:13:12 0° 138° (SE) 4,779 13.6 13.6°
